Track CARTOSAT 2C now! 10-day predictions CARTOSAT 2C is classified as:
1 41599U 16040A 26251.31280852 .00002252 00000-0 11011-3 0 9992 2 41599 97.4408 310.1088 0008456 196.0848 164.0119 15.19226563566337